Showing default

RASSVET-3 14, 68373

Orbit data source: Space-Track

RASSVET-3 14, 68373 is a payload satellite owned by Byuro 1440 (CIS) in LEO that was launched on Mon, 23 Mar 2026 UTC via a SOYUZ-2-1B launch vehicle from the Plesetsk Missile And Space Complex (PKMTR). Payload-class satellites include a variety of spacecraft equipped with specific instruments for various scientific and technological missions. These include communications satellites like Starlink; space stations such as the ISS; scientific satellites like the Hubble; Earth observation satellites from companies like Planet Labs, Umbra, and HawkEye 360; GPS; miniature CubeSats for education and research; and military/defense satellites.

Not visible in the next 10 days
Identifier
68373, 2026-061P
Orbit
LEO
Country
Flag of CISCIS
Related business
Manufacturer
Byuro 1440
Mission
Operational spacecraft
Bus & Motor
RASSVET-2, Unknown motor
Mass
~370 kg wet, ~370 kg dry
Launch date (UTC)
2026-03-23 (3 months ago)
Launch vehicle
SOYUZ-2-1B
Launch site
Plesetsk Missile And Space Complex (PKMTR)
Object type
Payload
Rocket body
Debris
Shape & HBR
Unknown shape, 1.8 m
Radar Cross Section
Large (>1 m²)

Expand to show TLE details & history
Last TLE update: 12 hours ago

TLE from 12 hours ago
0 RASSVET-3 14
1 68373U 26061P   26169.60481586  .00030981  00000-0  22474-3 0  9997
2 68373  82.2930  10.6049 0008874 113.9573 246.2620 15.73180956 13785
Epoch: 2026-06-18T14:30Z
TLE epoch observation values (Epoch: 2026-06-18T14:30:56.090Z)
Latitude
-0.00003°
Longitude
-113.97456°
Altitude
355.374 km
Speed
7.694 km/s
True Right ascension
00h 42m 25s
True Declination
0° 00' 00"
Sunlit
Object was in daylight at epoch
Visualization orbit readout
Latitude
Unknown
Longitude
Unknown
Altitude
Unknown
Speed
Unknown
Apparent Right ascension
Unknown
Apparent Declination
Unknown
Sunlit
N/A
Visualization observer readout
Local Sidereal Time
13:29:07
Azimuth
Unknown
Elevation
Unknown
Doppler factor
Unknown
Orbital elements
Apogee altitude
352.689 km
Perigee altitude
340.754 km
Semi-major axis
6,724.858 km
Eccentricity
0.00089
Inclination
82.293°
RAAN
10.6049°
Arg. of periapsis
113.9573°
True anomaly
246.16896°
Mean anomaly
246.262°
Eccentric anomaly
246.21547°
Mean motion
3.93567 °/min
Orbital period
91.47 mins
BSTAR
0.00022474
Loading maneuver chart data...
Computing Atmospheric mass density...
Loading historical data...
Loading historical data...
Loading historical data...
Loading historical data...
Loading historical data...
Loading historical data...
Loading historical data...

Documentation

Showing up to 5 results
|